Lexington Weather

Lexington, Massachusetts, USA

68°F
9/23/2021 5:01am 
  • Lexington Conditions: Mostly cloudy
  • Temperature: 67.5°F / 19.7°CWarmer 0.9°F than last hour.
  • Dew Point: 66.6°FIncreased 1.3°Fsince last hour.
  • Relative Humidity: 97%Increased 1.0% since last hour.
  • Wind: Wind from SW SW Calm, 10-min avg: 1 mph, gust: 5 mph
  • Barometer: 30.03 in Steady
  • Visibility: 10 miles
  • Rain Today: 0.00 in
  •   

Regional Weather Roundup
for Boston / Norton, MA

        
000
ASUS41 KBOX 180904
RWRBOX

REGIONAL WEATHER ROUNDUP
NATIONAL WEATHER SERVICE BOSTON/NORTON MA
500 AM EDT SAT SEP 18 2021

NOTE:  "FAIR" INDICATES FEW OR NO CLOUDS BELOW 12,000 FEET WITH NO 
SIGNIFICANT WEATHER AND/OR OBSTRUCTIONS TO VISIBILITY.

MAZALL-181000-
EASTERN MASSACHUSETTS
  
CITY           SKY/WX    TMP DP  RH WIND       PRES   REMARKS
BOSTON         CLOUDY    66  63  90 N6        30.09F FOG              
BEVERLY        FOG       64  63  96 N6        30.09F VSB 1            
LAWRENCE       CLOUDY    63  62  97 N5        30.12F FOG              
BEDFORD        CLOUDY    63  63 100 N3        30.09F FOG              
BLUE HILL      NOT AVBL                                               
NORWOOD        CLOUDY    65  63  93 N5        30.08F                  
MARSHFIELD     FOG       64  64 100 VRB3      30.08R VSB 1/4          
PLYMOUTH       CLOUDY    65  64  97 N9        30.07S FOG              
TAUNTON        CLOUDY    65  64  97 N5        30.07S                  
NEW BEDFORD    CLOUDY    65  65 100 N3        30.05F FOG              
$$

MAZALL-181000-
CAPE COD AND THE ISLANDS
  
CITY           SKY/WX    TMP DP  RH WIND       PRES   REMARKS
FALMOUTH       FOG       66  66 100 N9        30.05S VSB 1            
HYANNIS        CLOUDY    68  68 100 N10       30.04R FOG              
CHATHAM        CLOUDY    67  66  97 N6        30.05S FOG              
PROVINCETOWN   LGT RAIN  65  65 100 NE12      30.07S VSB 1            
NANTUCKET      CLOUDY    69  67  93 NE12      30.02S                  
MARTHAS VNYRD  CLOUDY    68  67  96 N13       30.04R                  
$$
 
MAZALL-181000-
CENTRAL AND WESTERN MASSACHUSETTS
  
CITY           SKY/WX    TMP DP  RH WIND       PRES   REMARKS
WORCESTER      FOG       62  61  96 NE3       30.11F VSB 1/4          
FITCHBURG      CLOUDY    63  62  97 CALM      30.11F FOG              
ORANGE         CLOUDY    63  62  97 N3        30.12S                  
SPRINGFIELD    CLOUDY    65  65 100 NE5       30.09S                  
WESTFIELD      CLOUDY    66  66 100 CALM      30.09F                  
NORTH ADAMS    CLOUDY    66  63  90 CALM      30.11S                  
PITTSFIELD     CLOUDY    64  63  96 CALM      30.11S                  
$$
 
RIZALL-181000-
RHODE ISLAND
  
CITY           SKY/WX    TMP DP  RH WIND       PRES   REMARKS
PROVIDENCE     CLOUDY    66  64  93 N10       30.08S                  
NEWPORT        CLOUDY    64  64 100 N10       30.06S FOG              
BLOCK ISLAND   CLOUDY    64  63  96 N9G17     30.06S                  
SMITHFIELD     FOG       63  63 100 N7        30.09S VSB 1/4          
WESTERLY       CLOUDY    63  63 100 N8        30.06S                  
$$
 
CTZALL-181000-
CONNECTICUT
  
CITY           SKY/WX    TMP DP  RH WIND       PRES   REMARKS
BRADLEY INTL   CLOUDY    65  64  97 N5        30.10S                  
HARTFORD       CLOUDY    66  62  87 N6        30.09S                  
BRIDGEPORT     PTCLDY    68  64  87 N7        30.07F                  
DANBURY        CLOUDY    69  64  84 N5        30.11S                  
GROTON         CLOUDY    65  64  97 N12       30.05S                  
NEW HAVEN      CLOUDY    68  66  93 N5        30.07S                  
CHESTER        CLOUDY    64  64 100 N9        30.08F FOG              
MERIDEN        CLOUDY    66  62  87 N7        30.08F                  
WILLIMANTIC    CLOUDY    64  63  96 N6        30.09F                  
OXFORD         CLOUDY    64  63  96 N7        30.11S                  
$$

MEZ002-015-021-024-NHZ003-005-008-011-012-014-VTZ005-008-181000-
NORTHERN NEW ENGLAND
  
CITY           SKY/WX    TMP DP  RH WIND       PRES   REMARKS
PORTLAND ME    FOG       61  61 100 CALM      30.11F VSB 1/2          
BANGOR ME      FOG       63  63 100 CALM      30.12S VSB 1/2          
CONCORD NH     CLOUDY    63  62  97 N3        30.11S                  
MANCHESTER NH  FOG       64  62  93 N3        30.09S VSB 1            
NASHUA NH      CLOUDY    63 N/A N/A N3        30.11F                  
PORTSMOUTH NH  FOG       63  63  99 N6        30.11S VSB 3/8          
JAFFREY NH     FOG       62  62 100 CALM      30.13R VSB 1/2          
KEENE NH       CLOUDY    64  63  96 CALM      30.12S                  
BURLINGTON VT  PTCLDY    69  64  84 S7        30.06S                  
MT. WASHINGTON FOG       50  50 100 W26         N/A  VSB 1/16         
$$

NYZ052-076-181000-
EASTERN NEW YORK
  
CITY           SKY/WX    TMP DP  RH WIND       PRES   REMARKS
ALBANY         CLOUDY    62  62 100 CALM      30.10S                  
NEW YORK CITY  MOCLDY    70  64  81 NE7       30.07S                  
$$
 
ANZALL-181000-
MARINE OBSERVATIONS
  
STATION/POSITION TIME  TEMP    WIND        PRES    VSBY  WAVE
                       AIR SEA DIR/SP/G                  HT/PER
                 (UTC) (F)     (DEG/KT/KT) (MB)    (MI)  (FT/S)
BOSTON BUOY      0840      67  360/ 12/ 14 1019.3R
BUZZARDS BAY     0800          360/ 18/ 19 1018.2F
NANTUCKET SOUND  0840   70 72   10/ 14/ 16 1016.9S
MASS BAY-STELLWA 0804   64      20/ 12/ 14 1018.4F  1 7/8  2/ 8
ISLE OF SHOALS   0800   63     350/ 10/ 10 1018.9F
S OF BLOCK IS    0826      70                N/A           7/ 9
$$

......................KEY.........................
  SKY/WX - SKY CONDITION/PRESENT WEATHER
  TMP    - TEMPERATURE IN FAHRENHEIT
  DWPT   - DEWPOINT IN FAHRENHEIT
  RH     - RELATIVE HUMIDITY IN PERCENT
  WIND   - DIRECTION AND SPEED IN MPH
  PRES   - MEAN SEA LEVEL PRESSURE IN INCHES OF HG
  WCI    - WIND CHILL INDEX
  VSB    - VISIBILITY IN MILES
  HX     - HEAT INDEX
  TC     - TEMPERATURE IN CELSIUS
  VRB    - VARIABLE WIND DIRECTION
  N/A    - NOT AVAILABLE
  
      

Other recent Regional Weather Roundups

Thu Sep 23, 4:04am

Thu Sep 23, 3:04am

Thu Sep 23, 2:04am

Thu Sep 23, 1:04am

Thu Sep 23, 12:04am

Wed Sep 22, 11:04pm

Wed Sep 22, 10:04pm

Wed Sep 22, 9:04pm

Wed Sep 22, 8:04pm

Wed Sep 22, 7:04pm

Wed Sep 22, 6:04pm

Wed Sep 22, 5:04pm

Wed Sep 22, 4:04pm

Wed Sep 22, 3:04pm

Wed Sep 22, 2:04pm

Wed Sep 22, 1:04pm

Wed Sep 22, 12:05pm

Wed Sep 22, 11:04am

Wed Sep 22, 10:04am

Wed Sep 22, 9:04am

Wed Sep 22, 8:04am

Wed Sep 22, 7:04am

Wed Sep 22, 6:04am

Wed Sep 22, 5:04am

Wed Sep 22, 4:04am

Wed Sep 22, 3:04am

Wed Sep 22, 2:04am

Wed Sep 22, 1:04am

Wed Sep 22, 12:04am

Tue Sep 21, 11:04pm

Tue Sep 21, 10:04pm

Tue Sep 21, 9:04pm

Tue Sep 21, 8:04pm

Tue Sep 21, 7:04pm

Tue Sep 21, 6:04pm

Tue Sep 21, 5:04pm

Tue Sep 21, 4:04pm

Tue Sep 21, 3:04pm

Tue Sep 21, 2:04pm

Tue Sep 21, 1:04pm

Tue Sep 21, 12:04pm

Tue Sep 21, 11:04am

Tue Sep 21, 10:04am

Tue Sep 21, 9:04am

Tue Sep 21, 8:04am

Tue Sep 21, 7:04am

Tue Sep 21, 6:04am

Tue Sep 21, 5:04am

Tue Sep 21, 4:04am

Tue Sep 21, 3:04am

Tue Sep 21, 2:04am

Tue Sep 21, 1:04am

Tue Sep 21, 12:04am

Mon Sep 20, 11:04pm

Mon Sep 20, 10:04pm

Mon Sep 20, 9:04pm

Mon Sep 20, 8:04pm

Mon Sep 20, 7:04pm

Mon Sep 20, 6:04pm

Mon Sep 20, 5:04pm

Mon Sep 20, 4:04pm

Mon Sep 20, 3:04pm

Mon Sep 20, 2:04pm

Mon Sep 20, 1:04pm

Mon Sep 20, 12:04pm

Mon Sep 20, 11:04am

Mon Sep 20, 10:04am

Mon Sep 20, 9:04am

Mon Sep 20, 7:04am

Mon Sep 20, 6:04am

Mon Sep 20, 5:04am

Mon Sep 20, 4:04am

Mon Sep 20, 3:04am

Mon Sep 20, 2:04am

Mon Sep 20, 1:04am

Mon Sep 20, 12:04am

Sun Sep 19, 11:04pm

Sun Sep 19, 10:04pm

Sun Sep 19, 9:04pm

Sun Sep 19, 8:04pm

Sun Sep 19, 7:04pm

Sun Sep 19, 6:04pm

Sun Sep 19, 5:04pm

Sun Sep 19, 4:04pm

Sun Sep 19, 3:04pm

Sun Sep 19, 2:05pm

Sun Sep 19, 1:04pm

Sun Sep 19, 12:04pm

Sun Sep 19, 11:04am

Sun Sep 19, 10:05am

Sun Sep 19, 9:04am

Sun Sep 19, 8:04am

Sun Sep 19, 7:04am

Sun Sep 19, 6:04am

Sun Sep 19, 5:04am

Sun Sep 19, 4:04am

Sun Sep 19, 3:04am

Sun Sep 19, 2:04am

Sun Sep 19, 1:04am

Sun Sep 19, 12:04am

Sat Sep 18, 11:05pm

Sat Sep 18, 10:04pm

Sat Sep 18, 9:04pm

Sat Sep 18, 8:04pm

Sat Sep 18, 7:04pm

Sat Sep 18, 6:04pm

Sat Sep 18, 5:04pm

Sat Sep 18, 4:04pm

Sat Sep 18, 3:04pm

Sat Sep 18, 2:04pm

Sat Sep 18, 1:04pm

Sat Sep 18, 12:04pm

Sat Sep 18, 11:04am

Sat Sep 18, 10:04am

Sat Sep 18, 9:04am

Sat Sep 18, 8:04am

Sat Sep 18, 7:04am

Sat Sep 18, 6:04am

Sat Sep 18, 4:04am

Sat Sep 18, 3:04am

Sat Sep 18, 2:04am

Sat Sep 18, 1:04am

Sat Sep 18, 12:04am

Fri Sep 17, 11:04pm

Fri Sep 17, 10:04pm

Fri Sep 17, 9:04pm

Fri Sep 17, 8:04pm

Fri Sep 17, 7:04pm

Fri Sep 17, 6:04pm

Fri Sep 17, 5:04pm

Fri Sep 17, 4:04pm

Fri Sep 17, 3:04pm

Fri Sep 17, 2:04pm

Fri Sep 17, 1:04pm

Fri Sep 17, 12:05pm

Fri Sep 17, 11:04am

Fri Sep 17, 10:04am

Fri Sep 17, 9:04am

Fri Sep 17, 8:04am

Fri Sep 17, 7:04am

Fri Sep 17, 6:04am

Fri Sep 17, 5:04am

Fri Sep 17, 4:04am

Fri Sep 17, 3:04am

Fri Sep 17, 2:04am

Fri Sep 17, 1:04am

Fri Sep 17, 12:04am

Thu Sep 16, 11:04pm

Thu Sep 16, 10:04pm

Thu Sep 16, 9:04pm

Thu Sep 16, 8:04pm

Thu Sep 16, 7:04pm

Thu Sep 16, 6:04pm

Thu Sep 16, 5:04pm

Thu Sep 16, 4:04pm

Thu Sep 16, 3:04pm

Thu Sep 16, 2:04pm

Thu Sep 16, 1:05pm

Thu Sep 16, 12:04pm

Thu Sep 16, 11:05am

Thu Sep 16, 10:05am

Thu Sep 16, 9:04am

Thu Sep 16, 8:04am

Thu Sep 16, 7:04am

Thu Sep 16, 6:04am

Thu Sep 16, 5:04am

Meta data:

ID: c3ec8ab9-3156-4da6-85bb-bc70efe3e273
Link: https://api.weather.gov/products/c3ec8ab9-3156-4da6-85bb-bc70efe3e273